KT4FD Weather Reports


time (UTC)temp
C
wind
direction
speed
KPH
gust
KPH
rain 1hr
cm
rain 24hr
cm
rain mn
cm
humidity
%
barometer
mb
20260510142001 20 58 8.0 12.9 0.00 0.00 0.00 73 1019.3
20260510141002 18 259 0.0 4.8 0.00 0.00 0.00 79 1019.4
20260510140002 18 255 1.6 4.8 0.00 0.00 0.00 80 1019.5
20260510135001 18 257 1.6 4.8 0.00 0.00 0.00 85 1019.5
20260510134002 17 273 1.6 4.8 0.00 0.00 0.00 86 1019.4
20260510133002 17 279 0.0 1.6 0.00 0.00 0.00 86 1019.2
20260510111002 11 256 1.6 4.8 0.00 0.00 0.00 87 1018.0
20260510110002 11 257 0.0 3.2 0.00 0.00 0.00 86 1017.7
20260510105002 12 257 1.6 4.8 0.00 0.00 0.00 87 1017.7
20260510104002 12 259 3.2 9.7 0.00 0.00 0.00 86 1017.3
20260510103001 12 333 0.0 0.0 0.00 0.00 0.00 87 1017.2
20260510102002 12 333 0.0 0.0 0.00 0.00 0.00 87 1017.1
20260510060001 14 247 0.0 0.0 0.00 0.00 0.00 86 1016.3
20260510055002 14 247 0.0 0.0 0.00 0.00 0.00 86 1016.2
20260510054002 14 247 0.0 0.0 0.00 0.00 0.00 86 1016.4
20260510053001 14 247 0.0 0.0 0.00 0.00 0.00 86 1016.5
20260510052002 14 247 0.0 0.0 0.00 0.00 0.00 86 1016.6
20260510051002 14 247 0.0 0.0 0.00 0.00 0.00 86 1016.6
20260510050001 14 247 0.0 1.6 0.00 0.00 0.00 86 1016.7
20260510045002 14 247 0.0 1.6 0.00 0.00 0.00 86 1017.0
20260510044001 14 247 0.0 1.6 0.00 0.00 0.00 86 1016.8
20260510043002 14 247 0.0 1.6 0.00 0.00 0.00 86 1016.9
20260510042002 14 247 0.0 3.2 0.00 0.00 0.00 86 1017.0
20260510041002 14 247 1.6 3.2 0.00 0.00 0.00 86 1016.9
20260510035002 15 247 0.0 0.0 0.00 0.00 0.00 86 1016.8
20260510034001 15 247 0.0 4.8 0.00 0.00 0.00 86 1016.7
20260510033001 15 247 3.2 4.8 0.00 0.00 0.00 86 1016.8
20260510032002 15 247 1.6 4.8 0.00 0.00 0.00 86 1016.8
20260510031002 15 248 1.6 4.8 0.00 0.00 0.00 86 1016.6
20260510030002 15 248 0.0 3.2 0.00 0.00 0.00 86 1016.5
20260510015002 16 248 0.0 1.6 0.00 0.00 0.00 83 1015.5
20260510014002 16 248 0.0 0.0 0.00 0.00 0.00 83 1015.5
20260510013002 17 248 0.0 0.0 0.00 0.00 0.00 82 1015.5
20260510012002 17 248 0.0 0.0 0.00 0.00 0.00 82 1015.3
20260510011001 17 248 0.0 0.0 0.00 0.00 0.00 81 1015.3
20260510010002 17 248 0.0 0.0 0.00 0.00 0.00 79 1015.3
20260510005002 17 248 0.0 0.0 0.00 0.00 0.00 79 1015.1
20260510004001 17 248 0.0 3.2 0.00 0.00 0.00 78 1015.0
20260510003002 18 248 0.0 4.8 0.00 0.00 0.00 78 1015.0
20260510002001 18 248 1.6 4.8 0.00 0.00 0.00 77 1015.0
20260510001002 18 248 3.2 8.0 0.00 0.00 0.00 76 1014.8
20260510000002 18 247 4.8 8.0 0.00 0.00 0.00 75 1014.8
20260509235002 19 248 3.2 9.7 0.00 0.00 0.00 74 1014.8
20260509224001 21 282 8.0 14.5 0.00 0.00 0.00 69 1013.9
20260509223002 21 277 12.9 20.9 0.00 0.00 0.00 67 1014.0
20260509222002 21 271 9.7 16.1 0.00 0.00 0.00 66 1014.0
20260509221001 21 275 8.0 14.5 0.00 0.00 0.00 66 1013.8
20260509220002 21 250 8.0 16.1 0.00 0.00 0.00 65 1013.8
20260509215002 22 308 9.7 19.3 0.00 0.00 0.00 64 1013.7
20260509204002 21 247 4.8 12.9 0.00 0.00 0.00 71 1013.6
20260509203001 21 214 8.0 14.5 0.00 0.00 0.00 68 1013.6
20260509202001 21 203 9.7 16.1 0.00 0.00 0.00 68 1013.5
20260509201002 21 229 8.0 12.9 0.00 0.00 0.00 68 1013.4
20260509200002 22 214 6.4 16.1 0.00 0.00 0.00 66 1013.4
20260509195002 22 246 4.8 12.9 0.00 0.00 0.00 66 1013.6
20260509194002 22 236 8.0 16.1 0.00 0.00 0.00 64 1013.5
20260509193002 22 213 6.4 19.3 0.00 0.00 0.00 68 1013.7
20260509192002 21 199 9.7 16.1 0.00 0.00 0.00 66 1013.7
20260509191002 21 247 6.4 19.3 0.00 0.00 0.00 68 1013.6
20260509190002 21 245 6.4 19.3 0.00 0.00 0.00 69 1013.8
20260509185002 21 203 3.2 11.3 0.00 0.00 0.00 73 1013.8
20260509184002 21 179 8.0 16.1 0.00 0.00 0.00 72 1014.0
20260509183002 20 302 8.0 16.1 0.00 0.00 0.00 70 1013.9
20260509182002 20 247 8.0 12.9 0.00 0.00 0.00 69 1014.1
20260509181002 20 201 4.8 11.3 0.00 0.00 0.00 75 1014.1
20260509180002 19 214 8.0 16.1 0.00 0.00 0.00 73 1014.2
20260509175002 19 258 4.8 14.5 0.00 0.00 0.00 74 1014.0
20260509174002 19 210 4.8 16.1 0.00 0.00 0.00 74 1014.0
20260509173002 18 221 4.8 14.5 0.00 0.00 0.00 76 1014.3
20260509172001 18 270 4.8 20.9 0.00 0.00 0.00 76 1014.4